Location: Charlottesville
(38.0290°N, 78.4770°W)
Time: 10:43:00
(UTC-05:00)

Vanguard 2 - Visible Passes

Search period start: 18 January 2018 00:00
Search period end: 28 January 2018 00:00
Orbit: 552 x 2940 km, 32.9° (Epoch: 17 January)

Date Brightness Start Highest point End Pass type
(mag) Time Alt. Az. Time Alt. Az. Time Alt. Az.
18 Jan 10.3 03:07:59 32° SE 03:07:59 32° SE 03:17:01 10° E visible
18 Jan 9.8 05:09:26 33° SW 05:15:19 65° SSE 05:31:13 10° E visible
19 Jan 10.0 03:25:14 40° SE 03:25:14 40° SE 03:35:40 10° E visible
19 Jan 9.8 05:26:40 28° WSW 05:33:26 69° S 05:49:37 10° E visible
20 Jan 9.7 03:42:26 49° SE 03:42:26 49° SE 03:54:11 10° E visible
20 Jan 9.8 05:43:52 23° WSW 05:51:37 71° S 06:08:00 10° E visible
21 Jan 11.3 01:58:09 11° E 01:58:09 11° E 01:58:32 10° E visible
21 Jan 9.4 03:59:35 58° SSE 03:59:35 58° SSE 04:12:38 10° E visible
21 Jan 9.9 06:01:01 19° W 06:09:49 70° S 06:26:19 10° ESE visible
22 Jan 11.1 02:15:17 15° E 02:15:17 15° E 02:17:22 10° E visible
22 Jan 9.2 04:16:43 63° S 04:17:22 64° SSE 04:31:03 10° E visible
22 Jan 10.0 06:18:08 14° W 06:28:01 67° S 06:44:33 10° ESE visible
23 Jan 10.8 02:32:24 20° E 02:32:24 20° E 02:35:57 10° E visible
23 Jan 9.1 04:33:49 60° SW 04:35:27 67° S 04:49:25 10° E visible
23 Jan 10.1 06:35:21 10° W 06:46:13 62° SSW 07:02:39 10° ESE visible
24 Jan 10.5 02:49:29 26° E 02:49:29 26° E 02:54:25 10° E visible
24 Jan 9.1 04:50:55 52° WSW 04:53:35 68° S 05:07:47 10° E visible
24 Jan 10.3 06:53:29 10° W 07:04:23 56° SSW 07:20:34 10° SE visible
25 Jan 10.2 03:06:35 32° ESE 03:06:35 32° ESE 03:12:49 10° E visible
25 Jan 9.3 05:08:00 42° WSW 05:11:44 66° S 05:26:04 10° ESE visible
26 Jan 9.9 03:23:40 40° ESE 03:23:40 40° ESE 03:31:10 10° E visible
26 Jan 9.5 05:25:06 33° WSW 05:29:53 61° S 05:44:14 10° ESE visible
27 Jan 9.5 03:40:46 48° ESE 03:40:46 48° ESE 03:49:30 10° E visible
27 Jan 9.7 05:42:12 26° WSW 05:48:02 55° SSW 06:02:15 10° ESE visible
